Time,TemperatureF,DewpointF,PressureIn,WindDirection,WindDirectionDegrees,WindSpeedMPH,WindSpeedGustMPH,Humidity,HourlyPrecipIn,Conditions,Clouds,dailyrainin,SoftwareType,DateUTC
2013-10-06 00:02:00,35.0,27.0,-100.00,ESE,105,4.0,15.0,72,0.00,,,0.00,,2013-10-06 08:02:00,
2013-10-06 00:11:00,35.0,27.0,-100.00,ESE,105,4.0,15.0,72,0.00,,,0.00,,2013-10-06 08:11:00,
2013-10-06 00:22:00,35.0,27.0,-100.00,East,100,4.0,16.0,71,0.00,,,0.00,,2013-10-06 08:22:00,
2013-10-06 00:32:00,35.0,27.0,-100.00,East,100,4.0,16.0,71,0.00,,,0.00,,2013-10-06 08:32:00,
2013-10-06 00:42:00,35.0,27.0,-100.00,East,100,4.0,16.0,71,0.00,,,0.00,,2013-10-06 08:42:00,
2013-10-06 00:52:00,35.0,27.0,-100.00,ESE,110,6.0,15.0,72,0.00,,,0.00,,2013-10-06 08:52:00,
2013-10-06 01:01:00,35.0,27.0,-100.00,ESE,110,6.0,15.0,72,0.00,,,0.00,,2013-10-06 09:01:00,
2013-10-06 01:11:00,35.0,27.0,-100.00,ESE,110,6.0,15.0,72,0.00,,,0.00,,2013-10-06 09:11:00,
2013-10-06 01:22:00,35.0,27.0,-100.00,East,85,6.0,12.0,72,0.00,,,0.00,,2013-10-06 09:22:00,
2013-10-06 01:33:00,35.0,27.0,-100.00,East,85,6.0,12.0,72,0.00,,,0.00,,2013-10-06 09:33:00,
2013-10-06 01:43:00,35.0,27.0,-100.00,East,85,6.0,12.0,72,0.00,,,0.00,,2013-10-06 09:43:00,
2013-10-06 01:53:00,35.0,26.0,-100.00,ESE,120,6.0,16.0,71,0.00,,,0.00,,2013-10-06 09:53:00,
2013-10-06 02:03:00,35.0,26.0,-100.00,ESE,120,6.0,16.0,71,0.00,,,0.00,,2013-10-06 10:03:00,
2013-10-06 02:13:00,35.0,26.0,-100.00,ESE,120,6.0,16.0,71,0.00,,,0.00,,2013-10-06 10:13:00,
2013-10-06 02:23:00,35.0,26.0,-100.00,SSE,150,4.0,17.0,71,0.00,,,0.00,,2013-10-06 10:23:00,
2013-10-06 02:32:00,35.0,26.0,-100.00,SSE,150,4.0,17.0,71,0.00,,,0.00,,2013-10-06 10:32:00,
2013-10-06 02:42:00,35.0,26.0,-100.00,SSE,150,4.0,17.0,71,0.00,,,0.00,,2013-10-06 10:42:00,
2013-10-06 02:53:00,35.0,26.0,-100.00,ESE,110,4.0,14.0,69,0.00,,,0.00,,2013-10-06 10:53:00,
2013-10-06 03:02:00,35.0,26.0,-100.00,ESE,110,4.0,14.0,69,0.00,,,0.00,,2013-10-06 11:02:00,
2013-10-06 03:12:00,35.0,26.0,-100.00,ESE,110,4.0,14.0,69,0.00,,,0.00,,2013-10-06 11:12:00,
2013-10-06 03:21:00,35.0,26.0,-100.00,ESE,105,6.0,14.0,69,0.00,,,0.00,,2013-10-06 11:21:00,
2013-10-06 03:33:00,35.0,26.0,-100.00,ESE,105,6.0,14.0,69,0.00,,,0.00,,2013-10-06 11:33:00,
2013-10-06 03:42:00,35.0,26.0,-100.00,ESE,105,6.0,14.0,69,0.00,,,0.00,,2013-10-06 11:42:00,
2013-10-06 03:52:00,35.0,26.0,-100.00,East,95,6.0,16.0,68,0.00,,,0.00,,2013-10-06 11:52:00,
2013-10-06 04:02:00,35.0,26.0,-100.00,East,95,6.0,16.0,68,0.00,,,0.00,,2013-10-06 12:02:00,
2013-10-06 04:12:00,35.0,26.0,-100.00,East,95,6.0,16.0,68,0.00,,,0.00,,2013-10-06 12:12:00,
2013-10-06 04:22:00,35.0,25.0,-100.00,East,95,6.0,14.0,67,0.00,,,0.00,,2013-10-06 12:22:00,
2013-10-06 04:32:00,35.0,25.0,-100.00,East,95,6.0,14.0,67,0.00,,,0.00,,2013-10-06 12:32:00,
2013-10-06 04:42:00,35.0,25.0,-100.00,East,95,6.0,14.0,67,0.00,,,0.00,,2013-10-06 12:42:00,
2013-10-06 04:52:00,35.0,25.0,-100.00,ESE,120,6.0,13.0,67,0.00,,,0.00,,2013-10-06 12:52:00,
2013-10-06 05:02:00,35.0,25.0,-100.00,ESE,120,6.0,13.0,67,0.00,,,0.00,,2013-10-06 13:02:00,
2013-10-06 05:11:00,35.0,25.0,-100.00,ESE,120,6.0,13.0,67,0.00,,,0.00,,2013-10-06 13:11:00,
2013-10-06 05:21:00,35.0,25.0,-100.00,ESE,110,4.0,11.0,67,0.00,,,0.00,,2013-10-06 13:21:00,
2013-10-06 05:32:00,35.0,25.0,-100.00,ESE,110,4.0,11.0,67,0.00,,,0.00,,2013-10-06 13:32:00,
2013-10-06 05:42:00,35.0,25.0,-100.00,ESE,110,4.0,11.0,67,0.00,,,0.00,,2013-10-06 13:42:00,
2013-10-06 05:52:00,35.0,25.0,-100.00,ESE,120,4.0,11.0,66,0.00,,,0.00,,2013-10-06 13:52:00,
2013-10-06 06:02:00,35.0,25.0,-100.00,ESE,120,4.0,11.0,66,0.00,,,0.00,,2013-10-06 14:02:00,
2013-10-06 06:11:00,35.0,25.0,-100.00,ESE,120,4.0,11.0,66,0.00,,,0.00,,2013-10-06 14:11:00,
2013-10-06 06:22:00,35.0,24.0,-100.00,SE,135,4.0,13.0,66,0.00,,,0.00,,2013-10-06 14:22:00,
2013-10-06 06:32:00,35.0,24.0,-100.00,SE,135,4.0,13.0,66,0.00,,,0.00,,2013-10-06 14:32:00,
2013-10-06 06:42:00,35.0,24.0,-100.00,SE,135,4.0,13.0,66,0.00,,,0.00,,2013-10-06 14:42:00,
2013-10-06 06:52:00,34.0,24.0,-100.00,ESE,105,4.0,12.0,67,0.00,,,0.00,,2013-10-06 14:52:00,
2013-10-06 07:02:00,34.0,24.0,-100.00,ESE,105,4.0,12.0,67,0.00,,,0.00,,2013-10-06 15:02:00,
2013-10-06 07:11:00,34.0,24.0,-100.00,ESE,105,4.0,12.0,67,0.00,,,0.00,,2013-10-06 15:11:00,
2013-10-06 07:22:00,34.0,24.0,-100.00,ESE,110,4.0,12.0,68,0.00,,,0.00,,2013-10-06 15:22:00,
2013-10-06 07:34:00,34.0,24.0,-100.00,ESE,110,4.0,12.0,68,0.00,,,0.00,,2013-10-06 15:34:00,
2013-10-06 07:43:00,34.0,24.0,-100.00,ESE,110,4.0,12.0,68,0.00,,,0.00,,2013-10-06 15:43:00,
2013-10-06 07:53:00,33.0,24.0,-100.00,ESE,110,5.0,12.0,69,0.00,,,0.00,,2013-10-06 15:53:00,
2013-10-06 08:03:00,33.0,24.0,-100.00,ESE,110,5.0,12.0,69,0.00,,,0.00,,2013-10-06 16:03:00,
2013-10-06 08:12:00,33.0,24.0,-100.00,ESE,110,5.0,12.0,69,0.00,,,0.00,,2013-10-06 16:12:00,
2013-10-06 08:23:00,33.0,24.0,-100.00,SE,140,4.0,11.0,70,0.00,,,0.00,,2013-10-06 16:23:00,
2013-10-06 08:33:00,33.0,24.0,-100.00,SE,140,4.0,11.0,70,0.00,,,0.00,,2013-10-06 16:33:00,
2013-10-06 08:42:00,33.0,24.0,-100.00,SE,140,4.0,11.0,70,0.00,,,0.00,,2013-10-06 16:42:00,
2013-10-06 08:53:00,32.0,24.0,-100.00,SE,145,2.0,7.0,73,0.00,,,0.00,,2013-10-06 16:53:00,
2013-10-06 09:02:00,32.0,24.0,-100.00,SE,145,2.0,7.0,73,0.00,,,0.00,,2013-10-06 17:02:00,
2013-10-06 09:12:00,32.0,24.0,-100.00,SE,145,2.0,7.0,73,0.00,,,0.00,,2013-10-06 17:12:00,
2013-10-06 09:22:00,32.0,24.0,-100.00,ESE,110,5.0,10.0,74,0.00,,,0.00,,2013-10-06 17:22:00,
2013-10-06 09:33:00,32.0,24.0,-100.00,ESE,110,5.0,10.0,74,0.00,,,0.00,,2013-10-06 17:33:00,
2013-10-06 09:42:00,32.0,24.0,-100.00,ESE,110,5.0,10.0,74,0.00,,,0.00,,2013-10-06 17:42:00,
2013-10-06 09:52:00,32.0,25.0,-100.00,East,90,3.0,9.0,76,0.00,,,0.00,,2013-10-06 17:52:00,
2013-10-06 10:02:00,32.0,25.0,-100.00,East,90,3.0,9.0,76,0.00,,,0.00,,2013-10-06 18:02:00,
2013-10-06 10:12:00,32.0,25.0,-100.00,East,90,3.0,9.0,76,0.00,,,0.00,,2013-10-06 18:12:00,
2013-10-06 10:21:00,32.0,26.0,-100.00,SSE,155,1.0,6.0,77,0.00,,,0.00,,2013-10-06 18:21:00,
2013-10-06 10:32:00,32.0,26.0,-100.00,SSE,155,1.0,6.0,77,0.00,,,0.00,,2013-10-06 18:32:00,
2013-10-06 10:42:00,32.0,26.0,-100.00,SSE,155,1.0,6.0,77,0.00,,,0.00,,2013-10-06 18:42:00,
2013-10-06 10:52:00,32.0,26.0,-100.00,ESE,105,1.0,6.0,77,0.00,,,0.00,,2013-10-06 18:52:00,
2013-10-06 11:01:00,32.0,26.0,-100.00,ESE,105,1.0,6.0,77,0.00,,,0.00,,2013-10-06 19:01:00,
2013-10-06 11:11:00,32.0,26.0,-100.00,ESE,105,1.0,6.0,77,0.00,,,0.00,,2013-10-06 19:11:00,
2013-10-06 11:22:00,32.0,26.0,-100.00,SE,135,1.0,6.0,77,0.00,,,0.00,,2013-10-06 19:22:00,
2013-10-06 11:32:00,32.0,26.0,-100.00,SE,135,1.0,6.0,77,0.00,,,0.00,,2013-10-06 19:32:00,
2013-10-06 11:42:00,32.0,26.0,-100.00,SE,135,1.0,6.0,77,0.00,,,0.00,,2013-10-06 19:42:00,
2013-10-06 11:52:00,33.0,26.0,-100.00,SSE,155,2.0,6.0,77,0.00,,,0.00,,2013-10-06 19:52:00,
2013-10-06 12:02:00,33.0,26.0,-100.00,SSE,155,2.0,6.0,77,0.00,,,0.00,,2013-10-06 20:02:00,
2013-10-06 12:11:00,33.0,26.0,-100.00,SSE,155,2.0,6.0,77,0.00,,,0.00,,2013-10-06 20:11:00,
2013-10-06 12:22:00,34.0,27.0,-100.00,SSE,160,3.0,7.0,75,0.00,,,0.00,,2013-10-06 20:22:00,
2013-10-06 12:32:00,34.0,27.0,-100.00,SSE,160,3.0,7.0,75,0.00,,,0.00,,2013-10-06 20:32:00,
2013-10-06 12:42:00,34.0,27.0,-100.00,SSE,160,3.0,7.0,75,0.00,,,0.00,,2013-10-06 20:42:00,
2013-10-06 12:52:00,34.0,26.0,-100.00,South,180,2.0,6.0,74,0.00,,,0.00,,2013-10-06 20:52:00,
2013-10-06 13:01:00,34.0,26.0,-100.00,South,180,2.0,6.0,74,0.00,,,0.00,,2013-10-06 21:01:00,
2013-10-06 13:11:00,34.0,26.0,-100.00,South,180,2.0,6.0,74,0.00,,,0.00,,2013-10-06 21:11:00,
2013-10-06 13:22:00,35.0,27.0,-100.00,SE,145,2.0,6.0,72,0.00,,,0.00,,2013-10-06 21:22:00,
2013-10-06 13:34:00,35.0,27.0,-100.00,SE,145,2.0,6.0,72,0.00,,,0.00,,2013-10-06 21:34:00,
2013-10-06 13:44:00,35.0,27.0,-100.00,SE,145,2.0,6.0,72,0.00,,,0.00,,2013-10-06 21:44:00,
2013-10-06 13:54:00,35.0,27.0,-100.00,South,180,2.0,6.0,70,0.00,,,0.00,,2013-10-06 21:54:00,
2013-10-06 14:03:00,35.0,27.0,-100.00,South,180,2.0,6.0,70,0.00,,,0.00,,2013-10-06 22:03:00,
2013-10-06 14:13:00,35.0,27.0,-100.00,South,180,2.0,6.0,70,0.00,,,0.00,,2013-10-06 22:13:00,
2013-10-06 14:24:00,35.0,26.0,-100.00,NE,55,1.0,3.0,69,0.00,,,0.00,,2013-10-06 22:24:00,
2013-10-06 14:33:00,35.0,26.0,-100.00,NE,55,1.0,3.0,69,0.00,,,0.00,,2013-10-06 22:33:00,
2013-10-06 14:42:00,35.0,26.0,-100.00,NE,55,1.0,3.0,69,0.00,,,0.00,,2013-10-06 22:42:00,
2013-10-06 14:53:00,35.0,26.0,-100.00,SSW,210,3.0,4.0,67,0.00,,,0.00,,2013-10-06 22:53:00,
2013-10-06 15:03:00,35.0,26.0,-100.00,SSW,210,3.0,4.0,67,0.00,,,0.00,,2013-10-06 23:03:00,
2013-10-06 15:12:00,35.0,26.0,-100.00,SSW,210,3.0,4.0,67,0.00,,,0.00,,2013-10-06 23:12:00,
2013-10-06 15:22:00,33.0,25.0,-100.00,SW,220,3.0,6.0,72,0.00,,,0.00,,2013-10-06 23:22:00,
2013-10-06 15:34:00,33.0,25.0,-100.00,SW,220,3.0,6.0,72,0.00,,,0.00,,2013-10-06 23:34:00,
2013-10-06 15:42:00,33.0,25.0,-100.00,SW,220,3.0,6.0,72,0.00,,,0.00,,2013-10-06 23:42:00,
2013-10-06 15:53:00,33.0,26.0,-100.00,SSW,210,2.0,6.0,74,0.00,,,0.00,,2013-10-06 23:53:00,
2013-10-06 16:02:00,33.0,26.0,-100.00,SSW,210,2.0,6.0,74,0.00,,,0.00,,2013-10-07 00:02:00,
2013-10-06 16:12:00,33.0,26.0,-100.00,SSW,210,2.0,6.0,74,0.00,,,0.00,,2013-10-07 00:12:00,
2013-10-06 16:22:00,33.0,26.0,-100.00,NW,310,2.0,6.0,74,0.00,,,0.00,,2013-10-07 00:22:00,
2013-10-06 16:32:00,33.0,26.0,-100.00,NW,310,2.0,6.0,74,0.00,,,0.00,,2013-10-07 00:32:00,
2013-10-06 16:42:00,33.0,26.0,-100.00,NW,310,2.0,6.0,74,0.00,,,0.00,,2013-10-07 00:42:00,
2013-10-06 16:52:00,33.0,25.0,-100.00,NW,320,4.0,7.0,72,0.00,,,0.00,,2013-10-07 00:52:00,
2013-10-06 17:02:00,33.0,25.0,-100.00,NW,320,4.0,7.0,72,0.00,,,0.00,,2013-10-07 01:02:00,
2013-10-06 17:11:00,33.0,25.0,-100.00,NW,320,4.0,7.0,72,0.00,,,0.00,,2013-10-07 01:11:00,
2013-10-06 17:22:00,33.0,25.0,-100.00,NW,310,5.0,8.0,73,0.00,,,0.00,,2013-10-07 01:22:00,
2013-10-06 17:32:00,33.0,25.0,-100.00,NW,310,5.0,8.0,73,0.00,,,0.00,,2013-10-07 01:32:00,
2013-10-06 17:42:00,33.0,25.0,-100.00,NW,310,5.0,8.0,73,0.00,,,0.00,,2013-10-07 01:42:00,
2013-10-06 17:53:00,32.0,26.0,-100.00,NNW,340,4.0,9.0,77,0.00,,,0.00,,2013-10-07 01:53:00,
2013-10-06 18:02:00,32.0,26.0,-100.00,NNW,340,4.0,9.0,77,0.00,,,0.00,,2013-10-07 02:02:00,
2013-10-06 18:12:00,32.0,26.0,-100.00,NNW,340,4.0,9.0,77,0.00,,,0.00,,2013-10-07 02:12:00,
2013-10-06 18:22:00,31.0,26.0,-100.00,NW,325,4.0,8.0,82,0.00,,,0.00,,2013-10-07 02:22:00,
2013-10-06 18:32:00,31.0,26.0,-100.00,NW,325,4.0,8.0,82,0.00,,,0.00,,2013-10-07 02:32:00,
2013-10-06 18:42:00,31.0,26.0,-100.00,NW,325,4.0,8.0,82,0.00,,,0.00,,2013-10-07 02:42:00,
2013-10-06 18:53:00,31.0,27.0,-100.00,NW,325,6.0,11.0,86,0.00,,,0.00,,2013-10-07 02:53:00,
2013-10-06 19:02:00,31.0,27.0,-100.00,NW,325,6.0,11.0,86,0.00,,,0.00,,2013-10-07 03:02:00,
2013-10-06 19:12:00,31.0,27.0,-100.00,NW,325,6.0,11.0,86,0.00,,,0.00,,2013-10-07 03:12:00,
2013-10-06 19:22:00,30.0,28.0,-100.00,North,0,6.0,10.0,89,0.00,,,0.00,,2013-10-07 03:22:00,
2013-10-06 19:34:00,30.0,28.0,-100.00,North,0,6.0,10.0,89,0.00,,,0.00,,2013-10-07 03:34:00,
2013-10-06 19:44:00,30.0,28.0,-100.00,North,0,6.0,10.0,89,0.00,,,0.00,,2013-10-07 03:44:00,
2013-10-06 19:54:00,30.0,28.0,-100.00,NNW,345,4.0,9.0,90,0.00,,,0.00,,2013-10-07 03:54:00,
2013-10-06 20:04:00,30.0,28.0,-100.00,NNW,345,4.0,9.0,90,0.00,,,0.00,,2013-10-07 04:04:00,
2013-10-06 20:13:00,30.0,28.0,-100.00,NNW,345,4.0,9.0,90,0.00,,,0.00,,2013-10-07 04:13:00,
2013-10-06 20:24:00,30.0,28.0,-100.00,North,350,4.0,10.0,91,0.00,,,0.00,,2013-10-07 04:24:00,
2013-10-06 20:34:00,30.0,28.0,-100.00,North,350,4.0,10.0,91,0.00,,,0.00,,2013-10-07 04:34:00,
2013-10-06 20:44:00,30.0,28.0,-100.00,North,350,4.0,10.0,91,0.00,,,0.00,,2013-10-07 04:44:00,
2013-10-06 20:53:00,29.0,27.0,-100.00,NNW,340,5.0,9.0,92,0.00,,,0.00,,2013-10-07 04:53:00,
2013-10-06 21:03:00,29.0,27.0,-100.00,NNW,340,5.0,9.0,92,0.00,,,0.00,,2013-10-07 05:03:00,
2013-10-06 21:13:00,29.0,27.0,-100.00,NNW,340,5.0,9.0,92,0.00,,,0.00,,2013-10-07 05:13:00,
2013-10-06 21:22:00,29.0,27.0,-100.00,NNW,335,5.0,9.0,92,0.00,,,0.00,,2013-10-07 05:22:00,
2013-10-06 21:34:00,29.0,27.0,-100.00,NNW,335,5.0,9.0,92,0.00,,,0.00,,2013-10-07 05:34:00,
2013-10-06 21:43:00,29.0,27.0,-100.00,NNW,335,5.0,9.0,92,0.00,,,0.00,,2013-10-07 05:43:00,
2013-10-06 21:52:00,29.0,27.0,-100.00,NW,310,7.0,10.0,92,0.00,,,0.00,,2013-10-07 05:52:00,
2013-10-06 22:03:00,29.0,27.0,-100.00,NW,310,7.0,10.0,92,0.00,,,0.00,,2013-10-07 06:03:00,
2013-10-06 22:12:00,29.0,27.0,-100.00,NW,310,7.0,10.0,92,0.00,,,0.00,,2013-10-07 06:12:00,
2013-10-06 22:21:00,29.0,27.0,-100.00,North,350,4.0,6.0,92,0.00,,,0.00,,2013-10-07 06:21:00,
2013-10-06 22:32:00,29.0,27.0,-100.00,North,350,4.0,6.0,92,0.00,,,0.00,,2013-10-07 06:32:00,
2013-10-06 22:42:00,29.0,27.0,-100.00,North,350,4.0,6.0,92,0.00,,,0.00,,2013-10-07 06:42:00,
2013-10-06 22:52:00,29.0,27.0,-100.00,NW,325,5.0,7.0,92,0.00,,,0.00,,2013-10-07 06:52:00,
2013-10-06 23:01:00,29.0,27.0,-100.00,NW,325,5.0,7.0,92,0.00,,,0.00,,2013-10-07 07:01:00,
2013-10-06 23:12:00,29.0,27.0,-100.00,NW,325,5.0,7.0,92,0.00,,,0.00,,2013-10-07 07:12:00,
2013-10-06 23:22:00,29.0,27.0,-100.00,NNW,335,6.0,8.0,92,0.00,,,0.00,,2013-10-07 07:22:00,
2013-10-06 23:32:00,29.0,27.0,-100.00,NNW,335,6.0,8.0,92,0.00,,,0.00,,2013-10-07 07:32:00,
2013-10-06 23:42:00,29.0,27.0,-100.00,NNW,335,6.0,8.0,92,0.00,,,0.00,,2013-10-07 07:42:00,
2013-10-06 23:52:00,29.0,27.0,-100.00,NNW,335,4.0,7.0,92,0.00,,,0.00,,2013-10-07 07:52:00,